Погода в Новодвинске

Россия / Архангельская область     64°24′49″N   40°49′14″E
темп.,
°C
ветер,
м/с
пор.,
м/с
влажн.,
%
обл.,
%
осадки,
мм/ч
давл.,
гПа
погр.,
м
5 марта, пт
пт500:00−19ссз239732 0.0 99926
03:00−18ссз249760 0.0 1001108
06:00−17ссз249798 0.1 1001129
09:00−15ссз259496 0.1 1003256
12:00−13ссз3588100 0.1 1004573
15:00−13ссз3588100 0.1 1007673
18:00−17сз249598 0.0 100884
21:00−19сз129587 0.0 100920
6 марта, сб
сб600:00−18з129899 0.1 100922
03:00−19зюз119999 0.1 101020
06:00−20з1110098 0.0 100920
09:00−17юз119896 0.1 100858
12:00−11ююз238970 0.0 1007322
15:00−9ююз359185 0.1 1005428
18:00−13ююв269694 0.0 1002103
21:00−13ююв389690 0.1 1001229
7 марта, вс
вс700:00−14юв489798 0.0 998242
03:00−15вюв4119599 0.1 997279
06:00−15вюв51193100 0.0 996343
09:00−14в51091100 0.0 996422
12:00−12в51088100 0.0 998455
15:00−11всв51087100 0.0 999547
18:00−13всв51191100 0.0 1001491
21:00−17св41193100 0.0 1004345
8 марта, пн
пн800:00−21св4109598 0.0 1005272
03:00−22св399595 0.0 1007270
06:00−24св31095100 0.0 1009332
09:00−24св389289 0.0 1011338
12:00−21ссв358967 0.0 1012406
15:00−19с368771 0.0 1014527
18:00−23с259485 0.0 1015112
21:00−28с239443 0.0 101743
9 марта, вт
вт900:00−31с22931 0.0 101720
03:00−32с12911 0.0 101819
06:00−31с119049 0.0 101819
09:00−27св119375 0.0 1019190
12:00−22ссв1288100 0.0 1020362
15:00−21сз1185100 0.0 1021385
18:00−26сз229630 0.0 102120
21:00−27з229415 0.0 102219